Terminal Aerodrome Forecast
Issued by NWS

Home | Current Version | Previous Version | Text Only | Print | Product List | Glossary On
Versions: 1 2 3 4 5 6 7 8 9 10 11 12 13
000
FTUS45 KRIW 250500
TAFCOD
TAF
KCOD 250526Z 2506/2606 23008G15KT P6SM SCT090 BKN200
     FM250900 17008KT P6SM SCT070 BKN150
     FM252100 25011KT P6SM VCSH SCT060 BKN150
      AMD LTD TO CLD VIS AND WIND=

USA.gov is the U.S. government's official web portal to all federal, state and local government web resources and services.